Regional Weather Roundup
Issued by NWS

Home | Current Version | Previous Version | Text Only | Print | Product List | Glossary Off
Versions: 1 2 3 4 5 6 7 8 9 10 11 12 13 14 15 16 17 18 19 20 21 22 23 24 25 26 27 28 29 30 31 32 33 34 35 36 37 38 39 40 41 42 43 44 45 46 47 48 49 50

000
ASUS43 KLOT 271408
RWRIL

ILLINOIS REGIONAL WEATHER ROUNDUP
NATIONAL WEATHER SERVICE CHICAGO/ROMEOVILLE IL
900 AM CDT FRI MAR 27 2015

NOTE: "FAIR" INDICATES FEW OR NO CLOUDS BELOW 12,000 FEET WITH NO
SIGNIFICANT WEATHER AND/OR OBSTRUCTIONS TO VISIBILITY.

* THESE STATIONS ARE NOT UNDER NWS QUALITY CONTROL. THEY ALSO MAY NOT
  REPORT WEATHER SUCH AS PRECIPITATION OR FOG.

ILZ001-002-007-009-015-016-024-271500-
NORTHWEST ILLINOIS

CITY           SKY/WX    TMP DP  RH WIND       PRES   REMARKS
MOLINE         SUNNY     27   9  46 N13       30.22R WCI  16
STERLING*      SUNNY     27  10  50 N13G20    30.21R WCI  16
SAVANNA*       SUNNY     25   6  44 NE13G18   30.23S WCI  14
$$

ILZ003-004-008-010-011-017-018-271500-
NORTH CENTRAL ILLINOIS

CITY           SKY/WX    TMP DP  RH WIND       PRES   REMARKS
ROCKFORD       SUNNY     24   5  44 NE18      30.21S WCI  10
FREEPORT*      SUNNY     22   7  52 N12G20    30.22S WCI  11
ROCHELLE*      SUNNY     23   7  50 NE16      30.19S WCI  10
DE KALB*       SUNNY     22   6  51 N20G25    30.17S WCI   7
PERU*          SUNNY     27  13  56 N17G23    30.19R WCI  14
$$

ILZ005-006-012>014-019>023-271500-
NORTHEAST ILLINOIS

CITY           SKY/WX    TMP DP  RH WIND       PRES   REMARKS
CHICAGO-OHARE  MOSUNNY   22   8  55 N16       30.15S WCI   8
CHICAGO-MIDWAY MOSUNNY   26  12  55 N20       30.15R WCI  12
AURORA         SUNNY     26   6  42 N20       30.16R WCI  12
LANSING*       FLURRIES  26  15  61 N15       30.13S WCI  14
JOLIET*        LGT SNOW  25  19  80 N12       30.16R WCI  14
WAUKEGAN       SUNNY     22   5  48 NW14G23   30.15S WCI   9
DUPAGE AIRPORT SUNNY     25   5  42 N18G26    30.15R WCI  11
KANKAKEE*      FLURRIES  28  21  75 N14G21    30.13R WCI  16
WHEELING       SUNNY     23   8  52 N10       30.17S WCI  12
MORRIS*        CLOUDY    27  18  69 N10G17    30.15S WCI  17
ROMEOVILLE*    CLOUDY    23  15  70 N15       30.16R WCI  10
NORTHERLY ISL    N/A     25  13  60 N17         N/A  WCI  12
$$

LMZ740>746-271500-
SOUTHERN LAKE MICHIGAN

STATION/POSITION SKY/WX   TEMP    WIND        PRES    VSBY  WAVE
                          AIR SEA DIR/SP/G                  HT/PER
                          (F)     (DEG/KT/KT) (MB)    (MI)  (FT/S)
HARRISON CRIB              24     350/ 24/ 29   N/A
BURNHAM HARBOR             25     350/ 11/ 22   N/A
CALUMET HARBOR             25     330/ 16/ 22 1019.2R
BURNS HARBOR               27     360/ 20     1020.0R
MICHIGAN CITY              26     340/ 25/ 29   N/A
$$

ILZ025>027-034>036-040-047-049-050-058-095>099-271500-
WEST-CENTRAL ILLINOIS

CITY           SKY/WX    TMP DP  RH WIND       PRES   REMARKS
QUINCY         CLOUDY    32  24  72 N10       30.19R WCI  24
GALESBURG*     SUNNY     28  16  61 N14       30.19R WCI  17
MACOMB*        CLOUDY    30  22  72 NE15      30.22R WCI  19
JACKSONVILLE*  MOSUNNY   33  26  76 N7        30.17S WCI  27
PITTSFIELD*    PTSUNNY   32  25  74 N8        30.18S WCI  25
$$

ILZ028>032-037-038-041>044-048-051>054-059>061-271500-
CENTRAL ILLINOIS

CITY           SKY/WX    TMP DP  RH WIND       PRES   REMARKS
PONTIAC        SUNNY     29  17  61 N17       30.15S WCI  17
BLOOMINGTON    SUNNY     30  16  56 N18       30.14R WCI  18
DECATUR        MOSUNNY   34  21  59 N13G22    30.13R WCI  25
PEORIA         SUNNY     30  15  53 N10G17    30.18R WCI  21
LACON*         SUNNY     28  11  49 N13       30.18R WCI  17
LINCOLN*       CLOUDY    32  18  56 N14       30.17S WCI  22
SPRINGFIELD    CLOUDY    32  18  56 N15       30.17R WCI  22
TAYLORVILLE    PTSUNNY   32  21  64 N16       30.15R WCI  21
$$

ILZ033-039-045-046-055>057-062-063-271500-
EAST-CENTRAL ILLINOIS

CITY           SKY/WX    TMP DP  RH WIND       PRES   REMARKS
CHAMPAIGN      MOSUNNY   32  22  66 N17       30.10S WCI  21
DANVILLE*      FLURRIES  29  25  84 NE8       30.06S WCI  21
RANTOUL*       MOSUNNY   31  24  74 N16G22    30.11R WCI  20
MATTOON        CLOUDY    32  23  69 N16       30.10R WCI  21
PARIS*         CLOUDY    32  27  81 N6        30.10S WCI  26
$$

ILZ079-100>102-271500-
SOUTHWEST ILLINOIS

CITY           SKY/WX    TMP DP  RH WIND       PRES   REMARKS
ALTON          CLOUDY    34  23  64 N6        30.16R WCI  29
BELLEVILLE     MOSUNNY   36  28  73 N12       30.13S WCI  27
CAHOKIA*       MOSUNNY   35  26  69 N12       30.15S WCI  27
SPARTA*        LGT SNOW  32  31  96 NW6       30.14S WCI  26
$$

ILZ064>066-069>071-074>076-080>082-084>086-088>090-092>094-271500-
SOUTH-CENTRAL ILLINOIS

CITY           SKY/WX    TMP DP  RH WIND       PRES   REMARKS
CARBONDALE     FLURRIES  36  30  79 N15       30.12R WCI  27
CAIRO*         CLOUDY    39  32  77 N12       30.09R WCI  31
EFFINGHAM*     CLOUDY    33  27  76 N6        30.12R WCI  28
MARION         CLOUDY    37  32  81 N15       30.11R WCI  28
MT. VERNON     PTSUNNY   36  27  69 NW5       30.11R WCI  32
CENTRALIA*     CLOUDY    33  28  83 NW10      30.12R WCI  25
SALEM*         CLOUDY    35  30  82 NW13      30.12R WCI  27
METROPOLIS*    PTSUNNY   39  33  81 N8        30.07R WCI  33
$$

ILZ067-068-072-073-078-083-087-091-271500-
SOUTHEAST ILLINOIS

CITY           SKY/WX    TMP DP  RH WIND       PRES   REMARKS
LAWRENCEVILLE  CLOUDY    36  29  75 N12       30.08R WCI  28
FLORA*         MOSUNNY   35  29  82 N12       30.10S WCI  26
FAIRFIELD*     MOSUNNY   36  30  78 N13       30.08S WCI  28
HARRISBURG*    CLOUDY    38  30  74 N10       30.09S WCI  30
ROBINSON*      CLOUDY    34  28  79 N9        30.10R WCI  26
CARMI*         MOSUNNY   39  31  75 N15G21    30.07R WCI  30
$$

ABBREVIATIONS USED IN REMARKS
   TC - TEMPERATURE IN CELSIUS
  WCI - WIND CHILL INDEX
   HX - HEAT INDEX
  VSB - VISIBILITY
$$




USA.gov is the U.S. government's official web portal to all federal, state and local government web resources and services.